• In Belarus
  • List of Countries
  • For 7 days
  • Water Temperature
  • Satellite Maps
  • Weather Map
  • Weather Widgets
  • user-avatar
    Login

    Hourly Weather Tibissa

    Today, 13 December, Wednesday

    Time Temperature Precipitation Wind Pressure Humidity
    00:00 +9°C° 0 mm 2 mps 686 mmHg 45%
    01:00 +9°C° 0 mm 3 mps 687 mmHg 44%
    02:00 +9°C° 0 mm 2 mps 687 mmHg 45%
    03:00 +8°C° 0 mm 2 mps 687 mmHg 45%
    04:00 +8°C° 0 mm 2 mps 687 mmHg 46%
    05:00 +8°C° 0 mm 2 mps 687 mmHg 48%
    06:00 +8°C° 0 mm 2 mps 687 mmHg 50%
    07:00 +9°C° 0 mm 1 mps 688 mmHg 52%
    08:00 +10°C° 0 mm 1 mps 688 mmHg 50%
    09:00 +11°C° 0 mm 1 mps 689 mmHg 48%
    10:00 +12°C° 0 mm 1 mps 690 mmHg 47%
    11:00 +12°C° 0 mm 1 mps 690 mmHg 45%
    12:00 +13°C° 0 mm 1 mps 690 mmHg 44%
    13:00 +14°C° 0 mm 1 mps 690 mmHg 43%
    14:00 +14°C° 0 mm 1 mps 690 mmHg 44%
    15:00 +14°C° 0 mm 2 mps 690 mmHg 45%
    16:00 +14°C° 0 mm 2 mps 690 mmHg 45%
    17:00 +13°C° 0 mm 2 mps 690 mmHg 52%
    18:00 +11°C° 0 mm 1 mps 690 mmHg 59%
    19:00 +10°C° 0 mm 1 mps 690 mmHg 66%
    20:00 +9°C° 0 mm 1 mps 690 mmHg 71%
    21:00 +9°C° 0 mm 1 mps 690 mmHg 75%
    22:00 +8°C° 0 mm 1 mps 690 mmHg 79%
    23:00 +8°C° 0 mm 1 mps 690 mmHg 81%

    Tomorrow, 14 December, Thursday

    Time Temperature Precipitation Wind Pressure Humidity
    00:00 +8°C° 0 mm 1 mps 690 mmHg 82%
    01:00 +7°C° 0 mm 1 mps 690 mmHg 83%
    02:00 +7°C° 0 mm 1 mps 690 mmHg 80%
    03:00 +7°C° 0 mm 1 mps 689 mmHg 77%
    04:00 +6°C° 0 mm 2 mps 689 mmHg 74%
    05:00 +6°C° 0 mm 2 mps 689 mmHg 71%
    06:00 +5°C° 0 mm 2 mps 689 mmHg 68%
    07:00 +5°C° 0 mm 2 mps 689 mmHg 65%
    08:00 +7°C° 0 mm 2 mps 690 mmHg 59%
    09:00 +8°C° 0 mm 3 mps 690 mmHg 54%
    10:00 +10°C° 0 mm 3 mps 691 mmHg 48%
    11:00 +11°C° 0 mm 3 mps 690 mmHg 44%
    12:00 +12°C° 0 mm 3 mps 690 mmHg 39%
    13:00 +14°C° 0 mm 4 mps 690 mmHg 35%
    14:00 +14°C° 0 mm 4 mps 690 mmHg 35%
    15:00 +14°C° 0 mm 4 mps 689 mmHg 35%
    16:00 +14°C° 0 mm 4 mps 689 mmHg 36%
    17:00 +13°C° 0 mm 3 mps 688 mmHg 41%
    18:00 +11°C° 0 mm 3 mps 688 mmHg 46%
    19:00 +9°C° 0 mm 2 mps 687 mmHg 51%
    20:00 +9°C° 0 mm 2 mps 687 mmHg 52%
    21:00 +9°C° 0 mm 3 mps 687 mmHg 53%
    22:00 +9°C° 0 mm 3 mps 688 mmHg 54%
    23:00 +8°C° 0 mm 3 mps 687 mmHg 54%

    Day after tomorrow, 15 December, Friday

    Time Temperature Precipitation Wind Pressure Humidity
    00:00 +8°C° 0 mm 3 mps 687 mmHg 54%
    01:00 +8°C° 0 mm 3 mps 686 mmHg 55%
    02:00 +7°C° 0 mm 4 mps 686 mmHg 56%
    03:00 +6°C° 0 mm 4 mps 686 mmHg 57%
    04:00 +6°C° 0 mm 4 mps 685 mmHg 59%
    05:00 +6°C° 0 mm 4 mps 685 mmHg 57%
    06:00 +6°C° 0 mm 4 mps 685 mmHg 56%
    07:00 +6°C° 0 mm 4 mps 685 mmHg 54%
    08:00 +8°C° 0 mm 5 mps 685 mmHg 48%
    09:00 +10°C° 0 mm 5 mps 685 mmHg 41%
    10:00 +13°C° 0 mm 6 mps 685 mmHg 34%
    11:00 +14°C° 0 mm 7 mps 685 mmHg 31%
    12:00 +15°C° 0 mm 8 mps 685 mmHg 28%
    13:00 +16°C° 0 mm 9 mps 685 mmHg 25%
    14:00 +15°C° 0 mm 8 mps 684 mmHg 27%
    15:00 +15°C° 0 mm 7 mps 683 mmHg 29%
    16:00 +14°C° 0 mm 5 mps 683 mmHg 31%
    17:00 +13°C° 0 mm 5 mps 682 mmHg 35%
    18:00 +12°C° 0 mm 4 mps 682 mmHg 39%
    19:00 +11°C° 0 mm 3 mps 682 mmHg 42%
    20:00 +10°C° 0 mm 3 mps 682 mmHg 42%
    21:00 +10°C° 0 mm 3 mps 682 mmHg 42%
    22:00 +10°C° 0 mm 3 mps 682 mmHg 42%
    23:00 +10°C° 0.2 mm 3 mps 682 mmHg 45%

    16 December, Saturday

    Time Temperature Precipitation Wind Pressure Humidity
    00:00 +10°C° 0.2 mm 3 mps 681 mmHg 47%
    01:00 +9°C° 0.2 mm 2 mps 681 mmHg 49%
    02:00 +9°C° 0.3 mm 2 mps 680 mmHg 54%
    03:00 +9°C° 0.3 mm 2 mps 680 mmHg 58%
    04:00 +8°C° 0.3 mm 2 mps 679 mmHg 62%
    05:00 +8°C° 0.1 mm 2 mps 679 mmHg 64%
    06:00 +8°C° 0.1 mm 2 mps 679 mmHg 66%
    07:00 +8°C° 0.1 mm 2 mps 679 mmHg 67%
    08:00 +8°C° 0.1 mm 3 mps 680 mmHg 64%
    09:00 +8°C° 0.1 mm 4 mps 680 mmHg 60%
    10:00 +8°C° 0.1 mm 4 mps 681 mmHg 57%
    11:00 +8°C° 0.1 mm 5 mps 681 mmHg 63%
    12:00 +8°C° 0.1 mm 6 mps 682 mmHg 69%
    13:00 +6°C° 0.1 mm 7 mps 682 mmHg 75%
    14:00 +7°C° 0 mm 6 mps 682 mmHg 74%
    15:00 +7°C° 0 mm 6 mps 682 mmHg 74%
    16:00 +5°C° 0 mm 6 mps 682 mmHg 74%
    17:00 +6°C° 0 mm 5 mps 683 mmHg 76%
    18:00 +5°C° 0 mm 5 mps 683 mmHg 79%
    19:00 +5°C° 0 mm 4 mps 684 mmHg 81%
    20:00 +4°C° 0 mm 3 mps 684 mmHg 83%
    21:00 +5°C° 0 mm 2 mps 684 mmHg 84%
    22:00 +5°C° 0 mm 1 mps 685 mmHg 86%
    23:00 +5°C° 0 mm 1 mps 685 mmHg 85%

    17 December, Sunday

    Time Temperature Precipitation Wind Pressure Humidity
    00:00 +5°C° 0 mm 1 mps 684 mmHg 84%
    01:00 +5°C° 0 mm 1 mps 684 mmHg 84%
    02:00 +5°C° 0 mm 1 mps 684 mmHg 83%
    03:00 +5°C° 0 mm 1 mps 684 mmHg 82%
    04:00 +5°C° 0 mm 1 mps 684 mmHg 81%
    05:00 +5°C° 0 mm 1 mps 684 mmHg 81%
    06:00 +5°C° 0 mm 1 mps 685 mmHg 81%
    07:00 +5°C° 0 mm 1 mps 685 mmHg 81%
    08:00 +6°C° 0 mm 1 mps 685 mmHg 77%
    09:00 +7°C° 0 mm 1 mps 686 mmHg 73%
    10:00 +7°C° 0 mm 2 mps 686 mmHg 69%
    11:00 +7°C° 0.1 mm 2 mps 686 mmHg 68%
    12:00 +8°C° 0.1 mm 2 mps 686 mmHg 66%
    13:00 +8°C° 0.1 mm 3 mps 686 mmHg 65%
    14:00 +8°C° 0.1 mm 3 mps 686 mmHg 66%
    15:00 +8°C° 0.1 mm 3 mps 686 mmHg 67%
    16:00 +7°C° 0.1 mm 3 mps 686 mmHg 69%
    17:00 +7°C° 0.1 mm 2 mps 686 mmHg 71%
    18:00 +6°C° 0.1 mm 2 mps 686 mmHg 74%
    19:00 +6°C° 0.1 mm 2 mps 687 mmHg 77%
    20:00 +6°C° 0.1 mm 2 mps 687 mmHg 79%
    21:00 +5°C° 0.1 mm 2 mps 687 mmHg 81%
    22:00 +5°C° 0.1 mm 2 mps 688 mmHg 82%
    23:00 +4°C° 0.1 mm 3 mps 688 mmHg 83%

    18 December, Monday

    Time Temperature Precipitation Wind Pressure Humidity
    00:00 +4°C° 0.1 mm 3 mps 688 mmHg 83%
    01:00 +4°C° 0.1 mm 4 mps 688 mmHg 83%
    02:00 +3°C° 0 mm 4 mps 688 mmHg 83%
    03:00 +2°C° 0 mm 5 mps 688 mmHg 83%
    04:00 +1°C° 0 mm 5 mps 688 mmHg 83%
    05:00 +1°C° 0 mm 5 mps 688 mmHg 83%
    06:00 -1°C° 0 mm 6 mps 688 mmHg 84%
    07:00 -1°C° 0 mm 6 mps 688 mmHg 84%
    08:00 0°C° 0 mm 7 mps 688 mmHg 80%
    09:00 0°C° 0 mm 8 mps 689 mmHg 77%
    10:00 +1°C° 0 mm 8 mps 689 mmHg 73%
    11:00 +2°C° 0 mm 9 mps 689 mmHg 67%
    12:00 +3°C° 0 mm 9 mps 689 mmHg 60%
    13:00 +5°C° 0 mm 9 mps 689 mmHg 53%
    14:00 +3°C° 0 mm 9 mps 689 mmHg 54%
    15:00 +3°C° 0 mm 9 mps 689 mmHg 56%
    16:00 +4°C° 0 mm 8 mps 688 mmHg 57%
    17:00 +2°C° 0 mm 8 mps 689 mmHg 63%
    18:00 +3°C° 0 mm 7 mps 689 mmHg 69%
    19:00 +2°C° 0 mm 6 mps 689 mmHg 76%
    20:00 +1°C° 0 mm 6 mps 689 mmHg 79%
    21:00 +1°C° 0 mm 5 mps 689 mmHg 82%
    22:00 0°C° 0 mm 5 mps 690 mmHg 85%
    23:00 0°C° 0 mm 5 mps 689 mmHg 86%
    Show more